contact:dominique.lefevre@mio.osupytheas.fr, maurice.libes@osupytheas.fr, didier.mallarino@osupytheas.fr
Project:EMSO http://www.emso-fr.org/EMSO-France
Depth: 2436.0 m
Title:EMSO Ligure Ouest : Data MII capteur MICROCAT
DateTime_Computer,Latitude,Longitude,Temperature,Conductivity,Pressure,DateTime_Instrument
DateTime_Computer,Latitude,Longitude,degC,S m-1,dbar,DateTime_Instrument
2021-09-24T00:00:02Z,42.805,6.029,13.2988,4.60018,2470.437,2021-9-24T02:01:24Z
2021-09-24T00:03:05Z,42.805,6.029,13.2989,4.60020,2470.437,2021-9-24T02:04:27Z
2021-09-24T00:06:08Z,42.805,6.029,13.2989,4.60026,2470.427,2021-9-24T02:07:30Z
2021-09-24T00:09:12Z,42.805,6.029,13.2986,4.60031,2470.423,2021-9-24T02:10:33Z
2021-09-24T00:12:15Z,42.805,6.029,13.2988,4.60021,2470.474,2021-9-24T02:13:36Z
2021-09-24T00:15:18Z,42.805,6.029,13.2988,4.60011,2470.45,2021-9-24T02:16:40Z
2021-09-24T00:18:21Z,42.805,6.029,13.2987,4.60015,2470.437,2021-9-24T02:19:43Z
2021-09-24T00:21:24Z,42.805,6.029,13.2989,4.60031,2470.437,2021-9-24T02:22:46Z
2021-09-24T00:24:27Z,42.805,6.029,13.2987,4.60041,2470.413,2021-9-24T02:25:49Z
2021-09-24T00:27:30Z,42.805,6.029,13.2988,4.60011,2470.474,2021-9-24T02:28:52Z
2021-09-24T00:30:33Z,42.805,6.029,13.2987,4.60014,2470.437,2021-9-24T02:31:55Z
2021-09-24T00:33:37Z,42.805,6.029,13.2988,4.60031,2470.45,2021-9-24T02:34:58Z
2021-09-24T00:36:40Z,42.805,6.029,13.2993,4.60024,2470.437,2021-9-24T02:38:01Z
2021-09-24T00:39:43Z,42.805,6.029,13.2986,4.60024,2470.413,2021-9-24T02:41:05Z
2021-09-24T00:42:46Z,42.805,6.029,13.2989,4.60031,2470.437,2021-9-24T02:44:08Z
2021-09-24T00:45:49Z,42.805,6.029,13.2991,4.60021,2470.437,2021-9-24T02:47:11Z
2021-09-24T00:48:52Z,42.805,6.029,13.2992,4.60027,2470.413,2021-9-24T02:50:14Z
2021-09-24T00:51:55Z,42.805,6.029,13.2988,4.60014,2470.437,2021-9-24T02:53:17Z
2021-09-24T00:54:58Z,42.805,6.029,13.2988,4.60014,2470.413,2021-9-24T02:56:20Z
2021-09-24T00:58:02Z,42.805,6.029,13.2987,4.60019,2470.427,2021-9-24T02:59:23Z
2021-09-24T01:01:05Z,42.805,6.029,13.2990,4.60026,2470.404,2021-9-24T03:02:26Z
2021-09-24T01:04:08Z,42.805,6.029,13.2991,4.60031,2470.39,2021-9-24T03:05:30Z
2021-09-24T01:07:11Z,42.805,6.029,13.2990,4.60024,2470.427,2021-9-24T03:08:33Z
2021-09-24T01:10:14Z,42.805,6.029,13.2988,4.60014,2470.427,2021-9-24T03:11:36Z
2021-09-24T01:13:17Z,42.805,6.029,13.2989,4.60042,2470.427,2021-9-24T03:14:39Z
2021-09-24T01:16:20Z,42.805,6.029,13.2990,4.60031,2470.404,2021-9-24T03:17:42Z
2021-09-24T01:19:23Z,42.805,6.029,13.2989,4.60033,2470.38,2021-9-24T03:20:45Z
2021-09-24T01:22:27Z,42.805,6.029,13.2989,4.60019,2470.413,2021-9-24T03:23:48Z
2021-09-24T01:25:30Z,42.805,6.029,13.2987,4.60014,2470.39,2021-9-24T03:26:51Z
2021-09-24T01:28:33Z,42.805,6.029,13.2993,4.60021,2470.404,2021-9-24T03:29:55Z
2021-09-24T01:31:36Z,42.805,6.029,13.2991,4.60021,2470.413,2021-9-24T03:32:58Z
2021-09-24T01:34:39Z,42.805,6.029,13.2989,4.60016,2470.413,2021-9-24T03:36:01Z
2021-09-24T01:37:42Z,42.805,6.029,13.2991,4.60018,2470.366,2021-9-24T03:39:04Z
2021-09-24T01:40:45Z,42.805,6.029,13.2986,4.60016,2470.404,2021-9-24T03:42:07Z
2021-09-24T01:43:48Z,42.805,6.029,13.2986,4.60016,2470.38,2021-9-24T03:45:10Z
2021-09-24T01:46:52Z,42.805,6.029,13.2989,4.60013,2470.357,2021-9-24T03:48:13Z
2021-09-24T01:49:55Z,42.805,6.029,13.2985,4.60016,2470.39,2021-9-24T03:51:16Z
2021-09-24T01:52:58Z,42.805,6.029,13.2991,4.60017,2470.39,2021-9-24T03:54:19Z
2021-09-24T01:56:01Z,42.805,6.029,13.2988,4.60021,2470.366,2021-9-24T03:57:23Z
2021-09-24T01:59:04Z,42.805,6.029,13.2990,4.60019,2470.39,2021-9-24T04:00:26Z
2021-09-24T02:02:07Z,42.805,6.029,13.2989,4.60014,2470.366,2021-9-24T04:03:29Z
2021-09-24T02:05:10Z,42.805,6.029,13.2982,4.60021,2470.39,2021-9-24T04:06:32Z
2021-09-24T02:08:13Z,42.805,6.029,13.2987,4.60016,2470.404,2021-9-24T04:09:35Z
2021-09-24T02:11:16Z,42.805,6.029,13.2985,4.60012,2470.366,2021-9-24T04:12:38Z
2021-09-24T02:14:20Z,42.805,6.029,13.2986,4.60016,2470.39,2021-9-24T04:15:41Z
2021-09-24T02:17:23Z,42.805,6.029,13.2989,4.60019,2470.38,2021-9-24T04:18:44Z
2021-09-24T02:20:26Z,42.805,6.029,13.2991,4.60015,2470.366,2021-9-24T04:21:48Z
2021-09-24T02:23:29Z,42.805,6.029,13.2989,4.60021,2470.39,2021-9-24T04:24:51Z
2021-09-24T02:26:32Z,42.805,6.029,13.2987,4.60014,2470.38,2021-9-24T04:27:54Z
2021-09-24T02:29:35Z,42.805,6.029,13.2990,4.60013,2470.39,2021-9-24T04:30:57Z
2021-09-24T02:32:38Z,42.805,6.029,13.2986,4.60012,2470.366,2021-9-24T04:34:00Z
2021-09-24T02:35:41Z,42.805,6.029,13.2986,4.60011,2470.38,2021-9-24T04:37:03Z
2021-09-24T02:38:45Z,42.805,6.029,13.2990,4.60017,2470.366,2021-9-24T04:40:06Z
2021-09-24T02:41:48Z,42.805,6.029,13.2986,4.60013,2470.366,2021-9-24T04:43:09Z
2021-09-24T02:44:51Z,42.805,6.029,13.2992,4.60021,2470.366,2021-9-24T04:46:13Z
2021-09-24T02:47:54Z,42.805,6.029,13.2988,4.60019,2470.38,2021-9-24T04:49:16Z
2021-09-24T02:50:57Z,42.805,6.029,13.2986,4.60015,2470.343,2021-9-24T04:52:19Z
2021-09-24T02:54:00Z,42.805,6.029,13.2990,4.60016,2470.343,2021-9-24T04:55:22Z
2021-09-24T02:57:03Z,42.805,6.029,13.2991,4.60010,2470.39,2021-9-24T04:58:25Z
2021-09-24T03:00:06Z,42.805,6.029,13.2986,4.60011,2470.366,2021-9-24T05:01:28Z
2021-09-24T03:03:10Z,42.805,6.029,13.2983,4.60011,2470.39,2021-9-24T05:04:31Z
2021-09-24T03:06:13Z,42.805,6.029,13.2990,4.60008,2470.38,2021-9-24T05:07:34Z
2021-09-24T03:09:16Z,42.805,6.029,13.2986,4.60015,2470.357,2021-9-24T05:10:38Z
2021-09-24T03:12:19Z,42.805,6.029,13.2985,4.60011,2470.343,2021-9-24T05:13:41Z
2021-09-24T03:15:22Z,42.805,6.029,13.2991,4.60013,2470.366,2021-9-24T05:16:44Z
2021-09-24T03:18:25Z,42.805,6.029,13.2986,4.60011,2470.366,2021-9-24T05:19:47Z
2021-09-24T03:21:28Z,42.805,6.029,13.2989,4.60012,2470.366,2021-9-24T05:22:50Z
2021-09-24T03:24:31Z,42.805,6.029,13.2991,4.60019,2470.334,2021-9-24T05:25:53Z
2021-09-24T03:27:35Z,42.805,6.029,13.2991,4.60021,2470.366,2021-9-24T05:28:56Z
2021-09-24T03:30:38Z,42.805,6.029,13.2990,4.60010,2470.404,2021-9-24T05:31:59Z
2021-09-24T03:33:41Z,42.805,6.029,13.2988,4.60010,2470.38,2021-9-24T05:35:03Z
2021-09-24T03:36:44Z,42.805,6.029,13.2986,4.60016,2470.343,2021-9-24T05:38:06Z
2021-09-24T03:39:47Z,42.805,6.029,13.2989,4.60009,2470.343,2021-9-24T05:41:09Z
2021-09-24T03:42:50Z,42.805,6.029,13.2984,4.60011,2470.366,2021-9-24T05:44:12Z
2021-09-24T03:45:53Z,42.805,6.029,13.2986,4.60016,2470.366,2021-9-24T05:47:15Z
2021-09-24T03:48:56Z,42.805,6.029,13.2990,4.60010,2470.366,2021-9-24T05:50:18Z
2021-09-24T03:52:00Z,42.805,6.029,13.2991,4.60020,2470.366,2021-9-24T05:53:21Z
2021-09-24T03:55:03Z,42.805,6.029,13.2990,4.60020,2470.343,2021-9-24T05:56:24Z
2021-09-24T03:58:06Z,42.805,6.029,13.2990,4.60016,2470.39,2021-9-24T05:59:28Z
2021-09-24T04:01:09Z,42.805,6.029,13.2990,4.60011,2470.404,2021-9-24T06:02:31Z
2021-09-24T04:04:12Z,42.805,6.029,13.2988,4.60011,2470.357,2021-9-24T06:05:34Z
2021-09-24T04:07:15Z,42.805,6.029,13.2990,4.60014,2470.366,2021-9-24T06:08:37Z
2021-09-24T04:10:18Z,42.805,6.029,13.2989,4.60011,2470.404,2021-9-24T06:11:40Z
2021-09-24T04:13:21Z,42.805,6.029,13.2988,4.60011,2470.427,2021-9-24T06:14:43Z
2021-09-24T04:16:25Z,42.805,6.029,13.2991,4.60011,2470.343,2021-9-24T06:17:46Z
2021-09-24T04:19:28Z,42.805,6.029,13.2987,4.60011,2470.404,2021-9-24T06:20:49Z
2021-09-24T04:22:31Z,42.805,6.029,13.2985,4.60013,2470.404,2021-9-24T06:23:53Z
2021-09-24T04:25:34Z,42.805,6.029,13.2986,4.60011,2470.366,2021-9-24T06:26:56Z
2021-09-24T04:28:37Z,42.805,6.029,13.2990,4.60018,2470.357,2021-9-24T06:29:59Z
2021-09-24T04:31:40Z,42.805,6.029,13.2989,4.60012,2470.394,2021-9-24T06:33:02Z
2021-09-24T04:34:43Z,42.805,6.029,13.2990,4.60014,2470.38,2021-9-24T06:36:05Z
2021-09-24T04:37:46Z,42.805,6.029,13.2987,4.60017,2470.38,2021-9-24T06:39:08Z
2021-09-24T04:40:50Z,42.805,6.029,13.2988,4.60022,2470.39,2021-9-24T06:42:11Z
2021-09-24T04:43:53Z,42.805,6.029,13.2990,4.60014,2470.39,2021-9-24T06:45:14Z
2021-09-24T04:46:56Z,42.805,6.029,13.2986,4.60011,2470.366,2021-9-24T06:48:18Z
2021-09-24T04:49:59Z,42.805,6.029,13.2985,4.60009,2470.366,2021-9-24T06:51:21Z
2021-09-24T04:53:02Z,42.805,6.029,13.2984,4.60015,2470.404,2021-9-24T06:54:24Z
2021-09-24T04:56:05Z,42.805,6.029,13.2987,4.60011,2470.39,2021-9-24T06:57:27Z
2021-09-24T04:59:08Z,42.805,6.029,13.2990,4.60019,2470.404,2021-9-24T07:00:30Z
2021-09-24T05:02:11Z,42.805,6.029,13.2985,4.60016,2470.404,2021-9-24T07:03:33Z
2021-09-24T05:05:15Z,42.805,6.029,13.2987,4.60013,2470.413,2021-9-24T07:06:36Z
2021-09-24T05:08:18Z,42.805,6.029,13.2990,4.60015,2470.366,2021-9-24T07:09:39Z
2021-09-24T05:11:21Z,42.805,6.029,13.2989,4.60016,2470.404,2021-9-24T07:12:42Z
2021-09-24T05:14:24Z,42.805,6.029,13.2991,4.60027,2470.39,2021-9-24T07:15:46Z
2021-09-24T05:17:27Z,42.805,6.029,13.2986,4.60024,2470.38,2021-9-24T07:18:49Z
2021-09-24T05:20:30Z,42.805,6.029,13.2989,4.60019,2470.427,2021-9-24T07:21:52Z
2021-09-24T05:23:33Z,42.805,6.029,13.2991,4.60012,2470.39,2021-9-24T07:24:55Z
2021-09-24T05:26:36Z,42.805,6.029,13.2990,4.60016,2470.413,2021-9-24T07:27:58Z
2021-09-24T05:29:40Z,42.805,6.029,13.2991,4.60018,2470.39,2021-9-24T07:31:01Z
2021-09-24T05:32:43Z,42.805,6.029,13.2991,4.60021,2470.437,2021-9-24T07:34:04Z
2021-09-24T05:35:46Z,42.805,6.029,13.2992,4.60019,2470.437,2021-9-24T07:37:07Z
2021-09-24T05:38:49Z,42.805,6.029,13.2989,4.60015,2470.413,2021-9-24T07:40:11Z
2021-09-24T05:41:52Z,42.805,6.029,13.2990,4.60021,2470.413,2021-9-24T07:43:14Z
2021-09-24T05:44:55Z,42.805,6.029,13.2986,4.60022,2470.474,2021-9-24T07:46:17Z
2021-09-24T05:47:58Z,42.805,6.029,13.2984,4.60014,2470.437,2021-9-24T07:49:20Z
2021-09-24T05:51:01Z,42.805,6.029,13.2986,4.60015,2470.366,2021-9-24T07:52:23Z
2021-09-24T05:54:04Z,42.805,6.029,13.2990,4.60015,2470.413,2021-9-24T07:55:26Z
2021-09-24T05:57:08Z,42.805,6.029,13.2986,4.60013,2470.474,2021-9-24T07:58:29Z
2021-09-24T06:00:11Z,42.805,6.029,13.2988,4.60020,2470.474,2021-9-24T08:01:32Z
2021-09-24T06:03:14Z,42.805,6.029,13.2988,4.60019,2470.474,2021-9-24T08:04:36Z
2021-09-24T06:06:17Z,42.805,6.029,13.2989,4.60021,2470.437,2021-9-24T08:07:39Z
2021-09-24T06:09:20Z,42.805,6.029,13.2986,4.60009,2470.413,2021-9-24T08:10:42Z
2021-09-24T06:12:23Z,42.805,6.029,13.2988,4.60019,2470.483,2021-9-24T08:13:45Z
2021-09-24T06:15:26Z,42.805,6.029,13.2988,4.60015,2470.497,2021-9-24T08:16:48Z
2021-09-24T06:18:29Z,42.805,6.029,13.2991,4.60017,2470.497,2021-9-24T08:19:51Z
2021-09-24T06:21:33Z,42.805,6.029,13.2991,4.60019,2470.474,2021-9-24T08:22:54Z
2021-09-24T06:24:36Z,42.805,6.029,13.2990,4.60018,2470.52,2021-9-24T08:25:57Z
2021-09-24T06:27:39Z,42.805,6.029,13.2984,4.60011,2470.497,2021-9-24T08:29:01Z
2021-09-24T06:30:42Z,42.805,6.029,13.2989,4.60021,2470.507,2021-9-24T08:32:04Z
2021-09-24T06:33:45Z,42.805,6.029,13.2985,4.60026,2470.507,2021-9-24T08:35:07Z
2021-09-24T06:36:48Z,42.805,6.029,13.2993,4.60026,2470.497,2021-9-24T08:38:10Z
2021-09-24T06:39:51Z,42.805,6.029,13.2990,4.60019,2470.507,2021-9-24T08:41:13Z
2021-09-24T06:42:54Z,42.805,6.029,13.2989,4.60016,2470.483,2021-9-24T08:44:16Z
2021-09-24T06:45:58Z,42.805,6.029,13.2989,4.60018,2470.507,2021-9-24T08:47:19Z
2021-09-24T06:49:01Z,42.805,6.029,13.2987,4.60020,2470.507,2021-9-24T08:50:22Z
2021-09-24T06:52:04Z,42.805,6.029,13.2987,4.60014,2470.507,2021-9-24T08:53:26Z
2021-09-24T06:55:07Z,42.805,6.029,13.2991,4.60023,2470.507,2021-9-24T08:56:29Z
2021-09-24T06:58:10Z,42.805,6.029,13.2985,4.60020,2470.507,2021-9-24T08:59:32Z
2021-09-24T07:01:13Z,42.805,6.029,13.2990,4.60031,2470.507,2021-9-24T09:02:35Z
2021-09-24T07:04:16Z,42.805,6.029,13.2990,4.60031,2470.483,2021-9-24T09:05:38Z
2021-09-24T07:07:19Z,42.805,6.029,13.2993,4.60022,2470.544,2021-9-24T09:08:41Z
2021-09-24T07:10:23Z,42.805,6.029,13.2989,4.60032,2470.52,2021-9-24T09:11:44Z
2021-09-24T07:13:26Z,42.805,6.029,13.2987,4.60015,2470.507,2021-9-24T09:14:47Z
2021-09-24T07:16:29Z,42.805,6.029,13.2990,4.60016,2470.483,2021-9-24T09:17:51Z
2021-09-24T07:19:32Z,42.805,6.029,13.2986,4.60016,2470.553,2021-9-24T09:20:54Z
2021-09-24T07:22:35Z,42.805,6.029,13.2990,4.60021,2470.483,2021-9-24T09:23:57Z
2021-09-24T07:25:38Z,42.805,6.029,13.2990,4.60009,2470.507,2021-9-24T09:27:00Z
2021-09-24T07:28:41Z,42.805,6.029,13.2988,4.60019,2470.52,2021-9-24T09:30:03Z
2021-09-24T07:31:44Z,42.805,6.029,13.2989,4.60010,2470.53,2021-9-24T09:33:06Z
2021-09-24T07:34:48Z,42.805,6.029,13.2986,4.60021,2470.507,2021-9-24T09:36:09Z
2021-09-24T07:37:51Z,42.805,6.029,13.2989,4.60014,2470.507,2021-9-24T09:39:12Z
2021-09-24T07:40:54Z,42.805,6.029,13.2988,4.60016,2470.544,2021-9-24T09:42:16Z
2021-09-24T07:43:57Z,42.805,6.029,13.2986,4.60010,2470.53,2021-9-24T09:45:19Z
2021-09-24T07:47:00Z,42.805,6.029,13.2990,4.60011,2470.553,2021-9-24T09:48:22Z
2021-09-24T07:50:03Z,42.805,6.029,13.2988,4.60035,2470.52,2021-9-24T09:51:25Z
2021-09-24T07:53:06Z,42.805,6.029,13.2990,4.60051,2470.567,2021-9-24T09:54:28Z
2021-09-24T07:56:09Z,42.805,6.029,13.2988,4.60032,2470.53,2021-9-24T09:57:31Z
2021-09-24T07:59:13Z,42.805,6.029,13.2992,4.60042,2470.53,2021-9-24T10:00:34Z
2021-09-24T08:02:16Z,42.805,6.029,13.2991,4.60034,2470.52,2021-9-24T10:03:37Z
2021-09-24T08:05:19Z,42.805,6.029,13.2990,4.60031,2470.52,2021-9-24T10:06:41Z
2021-09-24T08:08:22Z,42.805,6.029,13.2992,4.60028,2470.53,2021-9-24T10:09:44Z
2021-09-24T08:11:25Z,42.805,6.029,13.2991,4.60043,2470.563,2021-9-24T10:12:47Z
2021-09-24T08:14:28Z,42.805,6.029,13.2990,4.60025,2470.567,2021-9-24T10:15:50Z
2021-09-24T08:17:31Z,42.805,6.029,13.2985,4.60029,2470.52,2021-9-24T10:18:53Z
2021-09-24T08:20:34Z,42.805,6.029,13.2988,4.60032,2470.553,2021-9-24T10:21:56Z
2021-09-24T08:23:38Z,42.805,6.029,13.2986,4.60032,2470.553,2021-9-24T10:24:59Z
2021-09-24T08:26:41Z,42.805,6.029,13.2988,4.60033,2470.544,2021-9-24T10:28:02Z
2021-09-24T08:29:44Z,42.805,6.029,13.2986,4.60027,2470.544,2021-9-24T10:31:06Z
2021-09-24T08:32:47Z,42.805,6.029,13.2985,4.60031,2470.567,2021-9-24T10:34:09Z
2021-09-24T08:35:50Z,42.805,6.029,13.2991,4.60029,2470.544,2021-9-24T10:37:12Z
2021-09-24T08:38:53Z,42.805,6.029,13.2992,4.60029,2470.507,2021-9-24T10:40:15Z
2021-09-24T08:41:56Z,42.805,6.029,13.2989,4.60032,2470.553,2021-9-24T10:43:18Z
2021-09-24T08:44:59Z,42.805,6.029,13.2990,4.60043,2470.53,2021-9-24T10:46:21Z
2021-09-24T08:48:03Z,42.805,6.029,13.2991,4.60039,2470.553,2021-9-24T10:49:24Z
2021-09-24T08:51:06Z,42.805,6.029,13.2990,4.60044,2470.544,2021-9-24T10:52:28Z
2021-09-24T08:54:09Z,42.805,6.029,13.2987,4.60042,2470.544,2021-9-24T10:55:31Z
2021-09-24T08:57:12Z,42.805,6.029,13.2992,4.60042,2470.53,2021-9-24T10:58:34Z
2021-09-24T09:00:15Z,42.805,6.029,13.2991,4.60037,2470.52,2021-9-24T11:01:37Z
2021-09-24T09:03:18Z,42.805,6.029,13.2987,4.60033,2470.52,2021-9-24T11:04:40Z
2021-09-24T09:06:21Z,42.805,6.029,13.2991,4.60053,2470.53,2021-9-24T11:07:43Z
2021-09-24T09:09:24Z,42.805,6.029,13.2991,4.60046,2470.53,2021-9-24T11:10:46Z
2021-09-24T09:12:28Z,42.805,6.029,13.2992,4.60034,2470.553,2021-9-24T11:13:49Z
2021-09-24T09:15:31Z,42.805,6.029,13.2992,4.60042,2470.507,2021-9-24T11:16:53Z
2021-09-24T09:18:34Z,42.805,6.029,13.2985,4.60026,2470.544,2021-9-24T11:19:56Z
2021-09-24T09:21:37Z,42.805,6.029,13.2989,4.60019,2470.544,2021-9-24T11:22:59Z
2021-09-24T09:24:40Z,42.805,6.029,13.2991,4.60027,2470.591,2021-9-24T11:26:02Z
2021-09-24T09:27:43Z,42.805,6.029,13.2990,4.60036,2470.567,2021-9-24T11:29:05Z
2021-09-24T09:30:46Z,42.805,6.029,13.2991,4.60058,2470.52,2021-9-24T11:32:08Z
2021-09-24T09:33:49Z,42.805,6.029,13.2991,4.60036,2470.53,2021-9-24T11:35:11Z
2021-09-24T09:36:53Z,42.805,6.029,13.2986,4.60052,2470.553,2021-9-24T11:38:14Z
2021-09-24T09:39:56Z,42.805,6.029,13.2990,4.60034,2470.544,2021-9-24T11:41:18Z
2021-09-24T09:42:59Z,42.805,6.029,13.2990,4.60053,2470.53,2021-9-24T11:44:21Z
2021-09-24T09:46:02Z,42.805,6.029,13.2986,4.60041,2470.507,2021-9-24T11:47:24Z
2021-09-24T09:49:05Z,42.805,6.029,13.2990,4.60033,2470.507,2021-9-24T11:50:27Z
2021-09-24T09:52:08Z,42.805,6.029,13.2989,4.60047,2470.577,2021-9-24T11:53:30Z
2021-09-24T09:55:11Z,42.805,6.029,13.2987,4.60057,2470.553,2021-9-24T11:56:33Z
2021-09-24T09:58:15Z,42.805,6.029,13.2989,4.60070,2470.567,2021-9-24T11:59:36Z
2021-09-24T10:01:18Z,42.805,6.029,13.2990,4.60082,2470.493,2021-9-24T12:02:39Z
2021-09-24T10:04:21Z,42.805,6.029,13.2990,4.60087,2470.544,2021-9-24T12:05:43Z
2021-09-24T10:07:24Z,42.805,6.029,13.2991,4.60070,2470.507,2021-9-24T12:08:46Z
2021-09-24T10:10:27Z,42.805,6.029,13.2987,4.60062,2470.53,2021-9-24T12:11:49Z
2021-09-24T10:13:30Z,42.805,6.029,13.2986,4.60088,2470.567,2021-9-24T12:14:52Z
2021-09-24T10:16:33Z,42.805,6.029,13.2988,4.60117,2470.53,2021-9-24T12:17:55Z
2021-09-24T10:19:36Z,42.805,6.029,13.2991,4.60084,2470.553,2021-9-24T12:20:58Z
2021-09-24T10:22:40Z,42.805,6.029,13.2985,4.60091,2470.507,2021-9-24T12:24:01Z
2021-09-24T10:25:43Z,42.805,6.029,13.2987,4.60097,2470.507,2021-9-24T12:27:04Z
2021-09-24T10:28:46Z,42.805,6.029,13.2986,4.60054,2470.52,2021-9-24T12:30:08Z
2021-09-24T10:31:49Z,42.805,6.029,13.2987,4.60050,2470.52,2021-9-24T12:33:11Z
2021-09-24T10:34:52Z,42.805,6.029,13.2990,4.60053,2470.507,2021-9-24T12:36:14Z
2021-09-24T10:37:55Z,42.805,6.029,13.2998,4.60042,2470.507,2021-9-24T12:39:17Z
2021-09-24T10:40:58Z,42.805,6.029,13.3002,4.60061,2470.553,2021-9-24T12:42:20Z
2021-09-24T10:44:01Z,42.805,6.029,13.3015,4.60057,2470.507,2021-9-24T12:45:23Z
2021-09-24T10:47:05Z,42.805,6.029,13.3015,4.60116,2470.52,2021-9-24T12:48:26Z
2021-09-24T10:50:08Z,42.805,6.029,13.3019,4.60097,2470.52,2021-9-24T12:51:30Z
2021-09-24T10:53:11Z,42.805,6.029,13.3009,4.60087,2470.507,2021-9-24T12:54:33Z
2021-09-24T10:56:14Z,42.805,6.029,13.3008,4.60072,2470.53,2021-9-24T12:57:36Z
2021-09-24T10:59:17Z,42.805,6.029,13.2997,4.60047,2470.507,2021-9-24T13:00:39Z
2021-09-24T11:02:20Z,42.805,6.029,13.2990,4.60049,2470.52,2021-9-24T13:03:42Z
2021-09-24T11:05:23Z,42.805,6.029,13.2990,4.60072,2470.46,2021-9-24T13:06:45Z
2021-09-24T11:08:26Z,42.805,6.029,13.2989,4.60052,2470.497,2021-9-24T13:09:48Z
2021-09-24T11:11:30Z,42.805,6.029,13.2991,4.60061,2470.53,2021-9-24T13:12:51Z
2021-09-24T11:14:33Z,42.805,6.029,13.2998,4.60054,2470.52,2021-9-24T13:15:55Z
2021-09-24T11:17:36Z,42.805,6.029,13.3006,4.60042,2470.497,2021-9-24T13:18:58Z
2021-09-24T11:20:39Z,42.805,6.029,13.2991,4.60074,2470.497,2021-9-24T13:22:01Z
2021-09-24T11:23:42Z,42.805,6.029,13.3000,4.60062,2470.474,2021-9-24T13:25:04Z
2021-09-24T11:26:45Z,42.805,6.029,13.2992,4.60101,2470.483,2021-9-24T13:28:07Z
2021-09-24T11:29:48Z,42.805,6.029,13.2998,4.60072,2470.52,2021-9-24T13:31:10Z
2021-09-24T11:32:51Z,42.805,6.029,13.2994,4.60042,2470.52,2021-9-24T13:34:13Z
2021-09-24T11:35:55Z,42.805,6.029,13.2991,4.60064,2470.497,2021-9-24T13:37:16Z
2021-09-24T11:38:58Z,42.805,6.029,13.2986,4.60037,2470.497,2021-9-24T13:40:20Z
2021-09-24T11:42:01Z,42.805,6.029,13.2998,4.60029,2470.497,2021-9-24T13:43:23Z
2021-09-24T11:45:04Z,42.805,6.029,13.2993,4.60040,2470.437,2021-9-24T13:46:26Z
2021-09-24T11:48:07Z,42.805,6.029,13.2990,4.60046,2470.483,2021-9-24T13:49:29Z
2021-09-24T11:51:10Z,42.805,6.029,13.2991,4.60035,2470.488,2021-9-24T13:52:32Z
2021-09-24T11:54:13Z,42.805,6.029,13.2992,4.60044,2470.474,2021-9-24T13:55:35Z
2021-09-24T11:57:16Z,42.805,6.029,13.2992,4.60033,2470.497,2021-9-24T13:58:38Z
2021-09-24T12:00:20Z,42.805,6.029,13.2991,4.60047,2470.46,2021-9-24T14:01:41Z
2021-09-24T12:03:23Z,42.805,6.029,13.2990,4.60029,2470.483,2021-9-24T14:04:45Z
2021-09-24T12:06:26Z,42.805,6.029,13.2988,4.60025,2470.46,2021-9-24T14:07:48Z
2021-09-24T12:09:29Z,42.805,6.029,13.2988,4.60019,2470.46,2021-9-24T14:10:51Z
2021-09-24T12:12:32Z,42.805,6.029,13.2991,4.60020,2470.474,2021-9-24T14:13:54Z
2021-09-24T12:15:35Z,42.805,6.029,13.2989,4.60016,2470.46,2021-9-24T14:16:57Z
2021-09-24T12:18:38Z,42.805,6.029,13.2988,4.60020,2470.45,2021-9-24T14:20:00Z
2021-09-24T12:21:41Z,42.805,6.029,13.2989,4.60015,2470.437,2021-9-24T14:23:03Z
2021-09-24T12:24:45Z,42.805,6.029,13.2988,4.60019,2470.497,2021-9-24T14:26:06Z
2021-09-24T12:27:48Z,42.805,6.029,13.2988,4.60025,2470.413,2021-9-24T14:29:10Z
2021-09-24T12:30:51Z,42.805,6.029,13.2989,4.60019,2470.47,2021-9-24T14:32:13Z
2021-09-24T12:33:54Z,42.805,6.029,13.2991,4.60019,2470.437,2021-9-24T14:35:16Z
2021-09-24T12:36:57Z,42.805,6.029,13.2984,4.60018,2470.427,2021-9-24T14:38:19Z
2021-09-24T12:40:00Z,42.805,6.029,13.2988,4.60019,2470.46,2021-9-24T14:41:22Z
2021-09-24T12:43:03Z,42.805,6.029,13.2987,4.60025,2470.45,2021-9-24T14:44:25Z
2021-09-24T12:46:07Z,42.805,6.029,13.2986,4.60019,2470.437,2021-9-24T14:47:28Z
2021-09-24T12:49:10Z,42.805,6.029,13.2990,4.60015,2470.413,2021-9-24T14:50:32Z
2021-09-24T12:52:13Z,42.805,6.029,13.2990,4.60016,2470.45,2021-9-24T14:53:35Z
2021-09-24T12:55:16Z,42.805,6.029,13.2990,4.60021,2470.46,2021-9-24T14:56:38Z
2021-09-24T12:58:19Z,42.805,6.029,13.2986,4.60013,2470.437,2021-9-24T14:59:41Z
2021-09-24T13:01:22Z,42.805,6.029,13.2990,4.60011,2470.413,2021-9-24T15:02:44Z
2021-09-24T13:04:25Z,42.805,6.029,13.2986,4.60009,2470.404,2021-9-24T15:05:47Z
2021-09-24T13:07:28Z,42.805,6.029,13.2987,4.60009,2470.46,2021-9-24T15:08:50Z
2021-09-24T13:10:32Z,42.805,6.029,13.2988,4.60010,2470.413,2021-9-24T15:11:53Z
2021-09-24T13:13:35Z,42.805,6.029,13.2990,4.60019,2470.474,2021-9-24T15:14:57Z
2021-09-24T13:16:38Z,42.805,6.029,13.2993,4.60011,2470.413,2021-9-24T15:18:00Z
2021-09-24T13:19:41Z,42.805,6.029,13.2988,4.60013,2470.413,2021-9-24T15:21:03Z
2021-09-24T13:22:44Z,42.805,6.029,13.2986,4.60011,2470.437,2021-9-24T15:24:06Z
2021-09-24T13:25:47Z,42.805,6.029,13.2990,4.60012,2470.427,2021-9-24T15:27:09Z
2021-09-24T13:28:50Z,42.805,6.029,13.2986,4.60009,2470.413,2021-9-24T15:30:12Z
2021-09-24T13:31:53Z,42.805,6.029,13.2993,4.60009,2470.366,2021-9-24T15:33:15Z
2021-09-24T13:34:57Z,42.805,6.029,13.2989,4.60012,2470.427,2021-9-24T15:36:18Z
2021-09-24T13:38:00Z,42.805,6.029,13.2990,4.60011,2470.39,2021-9-24T15:39:22Z
2021-09-24T13:41:03Z,42.805,6.029,13.2991,4.60011,2470.413,2021-9-24T15:42:25Z
2021-09-24T13:44:06Z,42.805,6.029,13.2990,4.60010,2470.427,2021-9-24T15:45:28Z
2021-09-24T13:47:09Z,42.805,6.029,13.2988,4.60012,2470.45,2021-9-24T15:48:31Z
2021-09-24T13:50:12Z,42.805,6.029,13.2985,4.60015,2470.413,2021-9-24T15:51:34Z
2021-09-24T13:53:15Z,42.805,6.029,13.2990,4.60011,2470.45,2021-9-24T15:54:37Z
2021-09-24T13:56:19Z,42.805,6.029,13.2986,4.60009,2470.366,2021-9-24T15:57:40Z
2021-09-24T13:59:22Z,42.805,6.029,13.2992,4.60011,2470.404,2021-9-24T16:00:44Z
2021-09-24T14:02:25Z,42.805,6.029,13.2986,4.60011,2470.404,2021-9-24T16:03:47Z
2021-09-24T14:05:28Z,42.805,6.029,13.2988,4.60012,2470.413,2021-9-24T16:06:50Z
2021-09-24T14:08:31Z,42.805,6.029,13.2988,4.60016,2470.413,2021-9-24T16:09:53Z
2021-09-24T14:11:34Z,42.805,6.029,13.2990,4.60013,2470.413,2021-9-24T16:12:56Z
2021-09-24T14:14:37Z,42.805,6.029,13.2986,4.60011,2470.404,2021-9-24T16:15:59Z
2021-09-24T14:17:40Z,42.805,6.029,13.2986,4.60013,2470.366,2021-9-24T16:19:02Z
2021-09-24T14:20:44Z,42.805,6.029,13.2987,4.60011,2470.366,2021-9-24T16:22:05Z
2021-09-24T14:23:47Z,42.805,6.029,13.2990,4.60009,2470.366,2021-9-24T16:25:09Z
2021-09-24T14:26:50Z,42.805,6.029,13.2990,4.60008,2470.404,2021-9-24T16:28:12Z
2021-09-24T14:29:53Z,42.805,6.029,13.2989,4.60011,2470.366,2021-9-24T16:31:15Z
2021-09-24T14:32:56Z,42.805,6.029,13.2988,4.60011,2470.413,2021-9-24T16:34:18Z
2021-09-24T14:35:59Z,42.805,6.029,13.2988,4.60008,2470.437,2021-9-24T16:37:21Z
2021-09-24T14:39:02Z,42.805,6.029,13.2988,4.60008,2470.39,2021-9-24T16:40:24Z
2021-09-24T14:42:06Z,42.805,6.029,13.2989,4.60009,2470.404,2021-9-24T16:43:27Z
2021-09-24T14:45:09Z,42.805,6.029,13.2990,4.60011,2470.38,2021-9-24T16:46:30Z
2021-09-24T14:48:12Z,42.805,6.029,13.2985,4.60011,2470.366,2021-9-24T16:49:34Z
2021-09-24T14:51:15Z,42.805,6.029,13.2990,4.60009,2470.343,2021-9-24T16:52:37Z
2021-09-24T14:54:18Z,42.805,6.029,13.2990,4.60010,2470.39,2021-9-24T16:55:40Z
2021-09-24T14:57:21Z,42.805,6.029,13.2984,4.60008,2470.366,2021-9-24T16:58:43Z
2021-09-24T15:00:24Z,42.805,6.029,13.2986,4.60011,2470.413,2021-9-24T17:01:46Z
2021-09-24T15:03:27Z,42.805,6.029,13.2990,4.60009,2470.366,2021-9-24T17:04:49Z
2021-09-24T15:06:31Z,42.805,6.029,13.2990,4.60013,2470.38,2021-9-24T17:07:52Z
2021-09-24T15:09:34Z,42.805,6.029,13.2989,4.60009,2470.366,2021-9-24T17:10:56Z